Guanajuato International Airport
MMLO : now visible

Airfield :











YOU CAN JOIN US ON...

 
LOGIN :

Register | Disclaimer

   EN    FR    IT 

 









Legend :    VFR   Marginal VFR   IFR   Intensive IFR   Very Intensive IFR
Visi :
Ceiling :
>= 8 km
>= 3000ft
5 to 8 km
1000 to 3000 ft
1500m to 5 km
500 to 1000 ft
800 to 1500m
200 to 500 ft
< 800m
< 200 ft
Symbols :   Thunderstorms  Fog  Heavy snow  Heavy precipitations  Wind > 20 kt






- Airport Elevation : 5956 ft
- IATA code : BJX


MMLO - Guanajuato International

CURRENT METAR :
  • 172240Z 05010KT 10SM BKN030TCU 25/09 A3015 RMK 8/200 TCU NE

EXPIRED METARs :
  • 172140Z 04010KT 10SM BKN030TCU 26/09 A3017 RMK 8/200
  • 172046Z 03013KT 10SM BKN030TCU 26/10 A3019 RMK SLP077 57005 905 8/200

TAF TAF MMLO
Valid from the 17 at 18:00 until the 18 at 18:00 UTC


171653Z 1718/1818 06012KT P6SM SCT030 SCT220
BECMG 1721/1722 SCT030CB BKN220
PROB40 1800/1803 6SM -TSRA BKN030CB BKN220
FM180300 06006KT P6SM SCT030 BKN220
BECMG 1817/1818 06010KT SCT030
MMFR FIR / North America



MET'MAP, your aeronautical weather chart ! - Copyright ORBIFLY December 2007 - Disclaimer

ORBIFLY MET'MAP TEAM :

Programming & Development : Alexandra Zaïnal
Concept & original design : Baudouin d'Aumeries
Assistance for programming : Marc-Olivier Méhu
Technical & hardware support : Manuel Goepfert

Contact : metmap@orbifly.com




SOURCES & CREDITS :

   NOAA       Earth
Advisory